Time,TemperatureF,DewpointF,PressureIn,WindDirection,WindDirectionDegrees,WindSpeedMPH,WindSpeedGustMPH,Humidity,HourlyPrecipIn,Conditions,Clouds,dailyrainin,SoftwareType,DateUTC
2013-01-19 00:02:00,27.1,14.4,30.48,SW,229,4.0,6.0,58,0.00,,,0.00,meteohub,2013-01-19 05:02:00,
2013-01-19 00:03:00,27.1,14.4,30.48,NW,304,1.0,6.0,58,0.00,,,0.00,meteohub,2013-01-19 05:03:00,
2013-01-19 00:04:00,27.1,14.4,30.48,SSW,194,0.0,6.0,58,0.00,,,0.00,meteohub,2013-01-19 05:04:00,
2013-01-19 00:09:00,27.1,14.4,30.47,SSW,213,2.0,6.0,58,0.00,,,0.00,meteohub,2013-01-19 05:09:00,
2013-01-19 00:14:00,27.1,14.4,30.47,SSW,197,2.0,9.0,58,0.00,,,0.00,meteohub,2013-01-19 05:14:00,
2013-01-19 00:19:00,27.0,14.2,30.47,SSE,160,3.0,9.0,58,0.00,,,0.00,meteohub,2013-01-19 05:19:00,
2013-01-19 00:24:00,27.0,14.2,30.46,SSE,149,2.0,9.0,58,0.00,,,0.00,meteohub,2013-01-19 05:24:00,
2013-01-19 00:29:00,27.0,13.8,30.46,SSW,199,4.0,6.0,57,0.00,,,0.00,meteohub,2013-01-19 05:29:00,
2013-01-19 00:34:00,26.8,14.0,30.45,South,191,3.0,6.0,58,0.00,,,0.00,meteohub,2013-01-19 05:34:00,
2013-01-19 00:39:00,26.4,13.3,30.45,SSE,163,2.0,6.0,57,0.00,,,0.00,meteohub,2013-01-19 05:39:00,
2013-01-19 00:44:00,26.2,13.5,30.45,SSW,205,1.0,6.0,58,0.00,,,0.00,meteohub,2013-01-19 05:44:00,
2013-01-19 00:49:00,26.2,13.8,30.45,South,188,1.0,7.0,59,0.00,,,0.00,meteohub,2013-01-19 05:49:00,
2013-01-19 00:54:00,26.1,13.6,30.44,South,173,2.0,8.0,59,0.00,,,0.00,meteohub,2013-01-19 05:54:00,
2013-01-19 00:59:00,26.1,13.6,30.44,SW,216,3.0,8.0,59,0.00,,,0.00,meteohub,2013-01-19 05:59:00,
2013-01-19 01:04:00,26.4,14.7,30.45,SSW,194,3.0,8.0,61,0.00,,,0.00,meteohub,2013-01-19 06:04:00,
2013-01-19 01:09:00,26.8,15.1,30.45,SW,233,2.0,5.0,61,0.00,,,0.00,meteohub,2013-01-19 06:09:00,
2013-01-19 01:14:00,26.8,14.7,30.45,SSE,155,1.0,8.0,60,0.00,,,0.00,meteohub,2013-01-19 06:14:00,
2013-01-19 01:19:00,26.6,14.9,30.45,South,180,2.0,8.0,61,0.00,,,0.00,meteohub,2013-01-19 06:19:00,
2013-01-19 01:24:00,26.4,15.1,30.45,SW,214,0.0,6.0,62,0.00,,,0.00,meteohub,2013-01-19 06:24:00,
2013-01-19 01:29:00,26.4,15.1,30.45,SW,214,1.0,5.0,62,0.00,,,0.00,meteohub,2013-01-19 06:29:00,
2013-01-19 01:34:00,26.4,16.0,30.45,WSW,239,2.0,5.0,64,0.00,,,0.00,meteohub,2013-01-19 06:34:00,
2013-01-19 01:39:00,26.8,16.5,30.45,South,187,4.0,5.0,65,0.00,,,0.00,meteohub,2013-01-19 06:39:00,
2013-01-19 01:44:00,26.8,17.2,30.44,South,173,1.0,7.0,67,0.00,,,0.00,meteohub,2013-01-19 06:44:00,
2013-01-19 01:49:00,27.0,17.8,30.44,SE,145,2.0,7.0,68,0.00,,,0.00,meteohub,2013-01-19 06:49:00,
2013-01-19 01:54:00,27.1,18.0,30.44,SSE,149,3.0,6.0,68,0.00,,,0.00,meteohub,2013-01-19 06:54:00,
2013-01-19 01:59:00,27.1,18.0,30.43,South,184,5.0,6.0,68,0.00,,,0.00,meteohub,2013-01-19 06:59:00,
2013-01-19 02:04:00,27.3,18.1,30.43,SW,233,2.0,7.0,68,0.00,,,0.00,meteohub,2013-01-19 07:04:00,
2013-01-19 02:09:00,27.3,18.5,30.43,SE,124,1.0,7.0,69,0.00,,,0.00,meteohub,2013-01-19 07:09:00,
2013-01-19 02:14:00,27.3,19.2,30.43,SSE,148,4.0,7.0,71,0.00,,,0.00,meteohub,2013-01-19 07:14:00,
2013-01-19 02:19:00,27.3,19.6,30.43,SSE,162,2.0,8.0,72,0.00,,,0.00,meteohub,2013-01-19 07:19:00,
2013-01-19 02:24:00,27.5,19.9,30.43,WSW,242,3.0,8.0,73,0.00,,,0.00,meteohub,2013-01-19 07:24:00,
2013-01-19 02:29:00,27.7,20.1,30.42,SW,221,2.0,8.0,73,0.00,,,0.00,meteohub,2013-01-19 07:29:00,
2013-01-19 02:34:00,28.0,20.5,30.42,SSW,212,2.0,8.0,73,0.00,,,0.00,meteohub,2013-01-19 07:34:00,
2013-01-19 02:39:00,28.0,20.5,30.43,SSW,201,4.0,8.0,73,0.00,,,0.00,meteohub,2013-01-19 07:39:00,
2013-01-19 02:44:00,28.2,21.0,30.43,SW,223,2.0,8.0,74,0.00,,,0.00,meteohub,2013-01-19 07:44:00,
2013-01-19 02:49:00,28.4,21.2,30.42,WSW,239,2.0,6.0,74,0.00,,,0.00,meteohub,2013-01-19 07:49:00,
2013-01-19 02:54:00,28.8,21.6,30.42,SSW,211,1.0,6.0,74,0.00,,,0.00,meteohub,2013-01-19 07:54:00,
2013-01-19 02:59:00,28.9,21.7,30.42,SW,219,1.0,6.0,74,0.00,,,0.00,meteohub,2013-01-19 07:59:00,
2013-01-19 03:04:00,29.1,21.9,30.42,SSE,167,2.0,7.0,74,0.00,,,0.00,meteohub,2013-01-19 08:04:00,
2013-01-19 03:09:00,29.5,22.3,30.41,South,183,6.0,7.0,74,0.00,,,0.00,meteohub,2013-01-19 08:09:00,
2013-01-19 03:14:00,29.8,22.3,30.41,WSW,250,6.0,7.0,73,0.00,,,0.00,meteohub,2013-01-19 08:14:00,
2013-01-19 03:19:00,30.0,22.5,30.41,SW,219,2.0,7.0,73,0.00,,,0.00,meteohub,2013-01-19 08:19:00,
2013-01-19 03:24:00,30.2,22.6,30.41,West,272,2.0,8.0,73,0.00,,,0.00,meteohub,2013-01-19 08:24:00,
2013-01-19 03:29:00,30.6,22.6,30.41,South,186,1.0,8.0,72,0.00,,,0.00,meteohub,2013-01-19 08:29:00,
2013-01-19 03:34:00,30.6,22.6,30.40,South,177,2.0,10.0,72,0.00,,,0.00,meteohub,2013-01-19 08:34:00,
2013-01-19 03:39:00,30.6,22.6,30.40,WNW,287,1.0,10.0,72,0.00,,,0.00,meteohub,2013-01-19 08:39:00,
2013-01-19 03:44:00,30.6,22.6,30.40,South,172,2.0,10.0,72,0.00,,,0.00,meteohub,2013-01-19 08:44:00,
2013-01-19 03:49:00,30.7,22.8,30.40,SW,234,3.0,6.0,72,0.00,,,0.00,meteohub,2013-01-19 08:49:00,
2013-01-19 03:54:00,30.9,23.0,30.39,SSW,207,4.0,7.0,72,0.00,,,0.00,meteohub,2013-01-19 08:54:00,
2013-01-19 03:59:00,31.3,23.0,30.39,SW,214,5.0,7.0,71,0.00,,,0.00,meteohub,2013-01-19 08:59:00,
2013-01-19 04:04:00,31.5,23.2,30.38,SW,229,1.0,7.0,71,0.00,,,0.00,meteohub,2013-01-19 09:04:00,
2013-01-19 04:10:00,31.5,23.2,30.39,SW,225,1.0,7.0,71,0.00,,,0.00,meteohub,2013-01-19 09:10:00,
2013-01-19 04:15:00,31.5,23.2,30.38,SW,233,3.0,8.0,71,0.00,,,0.00,meteohub,2013-01-19 09:15:00,
2013-01-19 04:20:00,31.6,23.0,30.38,SSW,200,2.0,8.0,70,0.00,,,0.00,meteohub,2013-01-19 09:20:00,
2013-01-19 04:25:00,31.8,23.2,30.38,SSW,201,2.0,8.0,70,0.00,,,0.00,meteohub,2013-01-19 09:25:00,
2013-01-19 04:30:00,31.8,23.5,30.38,SW,235,2.0,7.0,71,0.00,,,0.00,meteohub,2013-01-19 09:30:00,
2013-01-19 04:35:00,31.8,23.5,30.38,South,173,0.0,7.0,71,0.00,,,0.00,meteohub,2013-01-19 09:35:00,
2013-01-19 04:40:00,30.9,22.6,30.38,WSW,249,1.0,6.0,71,0.00,,,0.00,meteohub,2013-01-19 09:40:00,
2013-01-19 04:45:00,30.9,22.6,30.38,WSW,249,1.0,8.0,71,0.00,,,0.00,meteohub,2013-01-19 09:45:00,
2013-01-19 04:50:00,30.9,22.6,30.38,North,-999,-999.0,8.0,71,0.00,,,0.00,meteohub,2013-01-19 09:50:00,
2013-01-19 07:47:00,38.3,30.7,30.33,North,-999,-999.0,-999.0,74,0.00,,,0.00,meteohub,2013-01-19 12:47:00,
2013-01-19 07:48:00,38.3,30.7,30.33,North,-999,-999.0,-999.0,74,0.00,,,0.00,meteohub,2013-01-19 12:48:00,
2013-01-19 07:53:00,38.7,30.7,30.33,WSW,257,11.0,-999.0,73,0.00,,,0.00,meteohub,2013-01-19 12:53:00,
2013-01-19 07:58:00,38.8,30.9,30.33,WSW,250,7.0,13.0,73,0.00,,,0.00,meteohub,2013-01-19 12:58:00,
2013-01-19 08:03:00,39.0,31.1,30.33,WNW,287,8.0,13.0,73,0.00,,,0.00,meteohub,2013-01-19 13:03:00,
2013-01-19 08:08:00,39.4,31.1,30.33,South,176,5.0,12.0,72,0.00,,,0.00,meteohub,2013-01-19 13:08:00,
2013-01-19 08:13:00,39.7,31.5,30.33,West,266,3.0,12.0,72,0.00,,,0.00,meteohub,2013-01-19 13:13:00,
2013-01-19 08:18:00,39.9,31.3,30.33,SSE,159,5.0,16.0,71,0.00,,,0.00,meteohub,2013-01-19 13:18:00,
2013-01-19 08:23:00,40.5,31.8,30.32,WSW,255,10.0,16.0,71,0.00,,,0.00,meteohub,2013-01-19 13:23:00,
2013-01-19 08:28:00,40.6,31.6,30.33,SSW,201,11.0,17.0,70,0.00,,,0.00,meteohub,2013-01-19 13:28:00,
2013-01-19 08:33:00,40.8,31.8,30.33,WSW,249,2.0,18.0,70,0.00,,,0.00,meteohub,2013-01-19 13:33:00,
2013-01-19 08:38:00,41.2,32.2,30.32,WSW,245,7.0,18.0,70,0.00,,,0.00,meteohub,2013-01-19 13:38:00,
2013-01-19 08:43:00,41.4,32.0,30.32,SW,226,12.0,20.0,69,0.00,,,0.00,meteohub,2013-01-19 13:43:00,
2013-01-19 08:48:00,41.5,32.2,30.32,WSW,237,6.0,20.0,69,0.00,,,0.00,meteohub,2013-01-19 13:48:00,
2013-01-19 08:53:00,41.7,32.4,30.32,West,259,4.0,20.0,69,0.00,,,0.00,meteohub,2013-01-19 13:53:00,
2013-01-19 08:58:00,42.1,32.7,30.32,SW,215,12.0,19.0,69,0.00,,,0.00,meteohub,2013-01-19 13:58:00,
2013-01-19 09:03:00,42.3,32.5,30.32,SW,236,6.0,19.0,68,0.00,,,0.00,meteohub,2013-01-19 14:03:00,
2013-01-19 09:08:00,42.4,32.7,30.32,South,188,9.0,20.0,68,0.00,,,0.00,meteohub,2013-01-19 14:08:00,
2013-01-19 09:14:00,42.4,32.7,30.32,SW,228,9.0,21.0,68,0.00,,,0.00,meteohub,2013-01-19 14:14:00,
2013-01-19 09:19:00,42.8,32.5,30.32,South,184,6.0,21.0,67,0.00,,,0.00,meteohub,2013-01-19 14:19:00,
2013-01-19 09:24:00,43.0,32.4,30.32,West,265,7.0,21.0,66,0.00,,,0.00,meteohub,2013-01-19 14:24:00,
2013-01-19 09:29:00,43.2,32.5,30.32,South,188,6.0,20.0,66,0.00,,,0.00,meteohub,2013-01-19 14:29:00,
2013-01-19 09:34:00,43.3,32.7,30.31,West,264,13.0,20.0,66,0.00,,,0.00,meteohub,2013-01-19 14:34:00,
2013-01-19 09:39:00,43.3,33.1,30.31,South,188,12.0,20.0,67,0.00,,,0.00,meteohub,2013-01-19 14:39:00,
2013-01-19 09:44:00,43.5,32.9,30.31,WSW,242,4.0,20.0,66,0.00,,,0.00,meteohub,2013-01-19 14:44:00,
2013-01-19 09:49:00,43.5,32.9,30.31,SW,226,3.0,19.0,66,0.00,,,0.00,meteohub,2013-01-19 14:49:00,
2013-01-19 09:54:00,43.5,32.5,30.31,SSE,160,8.0,17.0,65,0.00,,,0.00,meteohub,2013-01-19 14:54:00,
2013-01-19 09:59:00,44.1,32.7,30.30,SW,236,4.0,17.0,64,0.00,,,0.00,meteohub,2013-01-19 14:59:00,
2013-01-19 10:04:00,44.2,33.3,30.30,West,269,2.0,19.0,65,0.00,,,0.00,meteohub,2013-01-19 15:04:00,
2013-01-19 10:09:00,44.4,32.5,30.30,SW,229,19.0,21.0,63,0.00,,,0.00,meteohub,2013-01-19 15:09:00,
2013-01-19 10:14:00,44.6,32.7,30.30,SSW,198,11.0,21.0,63,0.00,,,0.00,meteohub,2013-01-19 15:14:00,
2013-01-19 10:19:00,44.8,32.9,30.30,WSW,238,6.0,19.0,63,0.00,,,0.00,meteohub,2013-01-19 15:19:00,
2013-01-19 10:24:00,45.0,33.1,30.29,South,190,19.0,19.0,63,0.00,,,0.00,meteohub,2013-01-19 15:24:00,
2013-01-19 10:29:00,45.0,32.7,30.29,SW,225,11.0,21.0,62,0.00,,,0.00,meteohub,2013-01-19 15:29:00,
2013-01-19 10:34:00,45.1,33.3,30.28,SW,216,6.0,21.0,63,0.00,,,0.00,meteohub,2013-01-19 15:34:00,
2013-01-19 10:39:00,45.3,33.4,30.28,South,181,6.0,21.0,63,0.00,,,0.00,meteohub,2013-01-19 15:39:00,
2013-01-19 10:44:00,45.3,32.7,30.27,SSW,207,8.0,20.0,61,0.00,,,0.00,meteohub,2013-01-19 15:44:00,
2013-01-19 10:49:00,45.3,32.7,30.28,SE,145,6.0,21.0,61,0.00,,,0.00,meteohub,2013-01-19 15:49:00,
2013-01-19 10:54:00,45.7,33.1,30.27,West,274,9.0,21.0,61,0.00,,,0.00,meteohub,2013-01-19 15:54:00,
2013-01-19 10:59:00,45.7,32.5,30.27,SSE,155,5.0,21.0,60,0.00,,,0.00,meteohub,2013-01-19 15:59:00,
2013-01-19 11:04:00,45.7,32.5,30.26,WSW,248,6.0,20.0,60,0.00,,,0.00,meteohub,2013-01-19 16:04:00,
2013-01-19 11:09:00,45.9,32.4,30.26,WSW,256,6.0,23.0,59,0.00,,,0.00,meteohub,2013-01-19 16:09:00,
2013-01-19 11:14:00,46.0,32.9,30.25,WSW,238,6.0,23.0,60,0.00,,,0.00,meteohub,2013-01-19 16:14:00,
2013-01-19 11:19:00,46.4,32.4,30.25,SE,131,5.0,23.0,58,0.00,,,0.00,meteohub,2013-01-19 16:19:00,
2013-01-19 11:24:00,46.6,32.5,30.25,SSE,163,7.0,18.0,58,0.00,,,0.00,meteohub,2013-01-19 16:24:00,
2013-01-19 11:29:00,46.8,32.7,30.24,WSW,242,5.0,19.0,58,0.00,,,0.00,meteohub,2013-01-19 16:29:00,
2013-01-19 11:34:00,46.9,32.9,30.23,SSW,212,12.0,19.0,58,0.00,,,0.00,meteohub,2013-01-19 16:34:00,
2013-01-19 11:39:00,47.1,32.7,30.23,WSW,255,13.0,19.0,57,0.00,,,0.00,meteohub,2013-01-19 16:39:00,
2013-01-19 11:44:00,47.1,32.7,30.22,SSW,210,9.0,17.0,57,0.00,,,0.00,meteohub,2013-01-19 16:44:00,
2013-01-19 11:49:00,47.3,33.3,30.22,SSE,150,5.0,18.0,58,0.00,,,0.00,meteohub,2013-01-19 16:49:00,
2013-01-19 11:54:00,47.1,32.7,30.21,West,281,9.0,19.0,57,0.00,,,0.00,meteohub,2013-01-19 16:54:00,
2013-01-19 11:59:00,47.1,32.2,30.21,SSE,163,5.0,19.0,56,0.00,,,0.00,meteohub,2013-01-19 16:59:00,
2013-01-19 12:04:00,47.5,32.5,30.20,SW,229,9.0,20.0,56,0.00,,,0.00,meteohub,2013-01-19 17:04:00,
2013-01-19 12:09:00,47.8,32.5,30.19,SSW,205,7.0,20.0,55,0.00,,,0.00,meteohub,2013-01-19 17:09:00,
2013-01-19 12:15:00,47.5,32.2,30.19,SSW,210,19.0,20.0,55,0.00,,,0.00,meteohub,2013-01-19 17:15:00,
2013-01-19 12:20:00,47.1,32.2,30.19,SSW,212,17.0,21.0,56,0.00,,,0.00,meteohub,2013-01-19 17:20:00,
2013-01-19 12:23:00,46.9,31.6,30.19,SW,229,7.0,26.0,55,0.00,,,0.00,meteohub,2013-01-19 17:23:00,
2013-01-19 12:27:00,47.3,32.9,30.19,NW,320,5.0,26.0,57,0.00,,,0.00,meteohub,2013-01-19 17:27:00,
2013-01-19 12:32:00,47.8,32.9,30.19,WSW,256,7.0,21.0,56,0.00,,,0.00,meteohub,2013-01-19 17:32:00,
2013-01-19 12:37:00,47.7,31.8,30.19,SW,236,14.0,21.0,54,0.00,,,0.00,meteohub,2013-01-19 17:37:00,
2013-01-19 12:42:00,47.3,31.1,30.18,WSW,243,16.0,20.0,53,0.00,,,0.00,meteohub,2013-01-19 17:42:00,
2013-01-19 12:47:00,47.5,31.3,30.18,SSE,159,7.0,20.0,53,0.00,,,0.00,meteohub,2013-01-19 17:47:00,
2013-01-19 12:52:00,47.3,31.5,30.18,SSE,167,5.0,23.0,54,0.00,,,0.00,meteohub,2013-01-19 17:52:00,
2013-01-19 12:57:00,47.8,32.0,30.18,WSW,252,10.0,23.0,54,0.00,,,0.00,meteohub,2013-01-19 17:57:00,
2013-01-19 13:03:00,47.8,31.5,30.18,SW,226,3.0,23.0,53,0.00,,,0.00,meteohub,2013-01-19 18:03:00,
2013-01-19 13:08:00,47.7,31.8,30.17,South,187,6.0,17.0,54,0.00,,,0.00,meteohub,2013-01-19 18:08:00,
2013-01-19 13:14:00,47.7,31.8,30.17,SSE,165,11.0,22.0,54,0.00,,,0.00,meteohub,2013-01-19 18:14:00,
2013-01-19 13:19:00,47.5,31.6,30.17,SW,231,5.0,22.0,54,0.00,,,0.00,meteohub,2013-01-19 18:19:00,
2013-01-19 13:21:00,47.7,32.4,30.17,WSW,252,18.0,22.0,55,0.00,,,0.00,meteohub,2013-01-19 18:21:00,
2013-01-19 13:27:00,47.7,31.3,30.17,WSW,249,3.0,18.0,53,0.00,,,0.00,meteohub,2013-01-19 18:27:00,
2013-01-19 13:37:00,48.4,31.6,30.16,SSW,195,3.0,19.0,52,0.00,,,0.00,meteohub,2013-01-19 18:37:00,
2013-01-19 13:42:00,47.8,31.1,30.16,WSW,256,6.0,19.0,52,0.00,,,0.00,meteohub,2013-01-19 18:42:00,
2013-01-19 13:47:00,48.0,31.3,30.16,WSW,256,4.0,19.0,52,0.00,,,0.00,meteohub,2013-01-19 18:47:00,
2013-01-19 13:52:00,47.5,30.7,30.15,West,259,8.0,18.0,52,0.00,,,0.00,meteohub,2013-01-19 18:52:00,
2013-01-19 13:57:00,47.5,31.3,30.15,SW,233,12.0,17.0,53,0.00,,,0.00,meteohub,2013-01-19 18:57:00,
2013-01-19 14:02:00,47.7,31.3,30.15,SE,128,4.0,17.0,53,0.00,,,0.00,meteohub,2013-01-19 19:02:00,
2013-01-19 14:07:00,48.4,31.6,30.15,South,190,9.0,21.0,52,0.00,,,0.00,meteohub,2013-01-19 19:07:00,
2013-01-19 14:13:00,48.6,31.3,30.15,West,264,2.0,21.0,51,0.00,,,0.00,meteohub,2013-01-19 19:13:00,
2013-01-19 14:18:00,48.9,31.6,30.14,SW,233,5.0,21.0,51,0.00,,,0.00,meteohub,2013-01-19 19:18:00,
2013-01-19 14:23:00,48.9,32.0,30.14,West,276,5.0,15.0,52,0.00,,,0.00,meteohub,2013-01-19 19:23:00,
2013-01-19 14:28:00,48.9,32.5,30.14,SSW,207,9.0,16.0,53,0.00,,,0.00,meteohub,2013-01-19 19:28:00,
2013-01-19 14:33:00,48.7,31.8,30.14,SW,232,1.0,16.0,52,0.00,,,0.00,meteohub,2013-01-19 19:33:00,
2013-01-19 14:39:00,49.1,32.2,30.14,SW,229,15.0,15.0,52,0.00,,,0.00,meteohub,2013-01-19 19:39:00,
2013-01-19 14:44:00,48.7,31.8,30.14,WNW,293,6.0,15.0,52,0.00,,,0.00,meteohub,2013-01-19 19:44:00,
2013-01-19 14:49:00,48.9,32.5,30.14,WSW,238,5.0,16.0,53,0.00,,,0.00,meteohub,2013-01-19 19:49:00,
2013-01-19 14:54:00,48.9,32.0,30.14,SSW,210,6.0,16.0,52,0.00,,,0.00,meteohub,2013-01-19 19:54:00,
2013-01-19 14:59:00,48.9,32.0,30.14,WSW,252,9.0,17.0,52,0.00,,,0.00,meteohub,2013-01-19 19:59:00,
2013-01-19 15:04:00,48.7,32.4,30.13,WNW,291,9.0,17.0,53,0.00,,,0.00,meteohub,2013-01-19 20:04:00,
2013-01-19 15:09:00,48.7,32.9,30.13,SSW,194,5.0,20.0,54,0.00,,,0.00,meteohub,2013-01-19 20:09:00,
2013-01-19 15:15:00,48.4,32.5,30.13,SW,225,9.0,20.0,54,0.00,,,0.00,meteohub,2013-01-19 20:15:00,
2013-01-19 15:20:00,48.0,32.5,30.13,SSE,162,3.0,19.0,55,0.00,,,0.00,meteohub,2013-01-19 20:20:00,
2013-01-19 15:25:00,47.8,32.9,30.13,WSW,253,4.0,18.0,56,0.00,,,0.00,meteohub,2013-01-19 20:25:00,
2013-01-19 15:30:00,47.5,33.1,30.13,WSW,246,11.0,18.0,57,0.00,,,0.00,meteohub,2013-01-19 20:30:00,
2013-01-19 15:35:00,47.1,33.1,30.13,SW,228,6.0,16.0,58,0.00,,,0.00,meteohub,2013-01-19 20:35:00,
2013-01-19 15:40:00,46.9,33.4,30.12,WSW,239,1.0,16.0,59,0.00,,,0.00,meteohub,2013-01-19 20:40:00,
2013-01-19 15:46:00,46.8,33.3,30.12,SW,214,3.0,14.0,59,0.00,,,0.00,meteohub,2013-01-19 20:46:00,
2013-01-19 15:51:00,46.6,33.4,30.12,South,177,3.0,14.0,60,0.00,,,0.00,meteohub,2013-01-19 20:51:00,
2013-01-19 15:57:00,46.4,33.6,30.12,SW,218,5.0,14.0,61,0.00,,,0.00,meteohub,2013-01-19 20:57:00,
2013-01-19 16:02:00,46.2,34.0,30.12,SW,228,7.0,13.0,62,0.00,,,0.00,meteohub,2013-01-19 21:02:00,
2013-01-19 16:07:00,46.2,34.3,30.12,SSW,203,2.0,13.0,63,0.00,,,0.00,meteohub,2013-01-19 21:07:00,
2013-01-19 16:12:00,46.0,34.2,30.12,SW,236,7.0,12.0,63,0.00,,,0.00,meteohub,2013-01-19 21:12:00,
2013-01-19 16:17:00,46.0,34.5,30.12,WSW,252,1.0,12.0,64,0.00,,,0.00,meteohub,2013-01-19 21:17:00,
2013-01-19 16:22:00,46.0,34.9,30.11,SSW,207,5.0,11.0,65,0.00,,,0.00,meteohub,2013-01-19 21:22:00,
2013-01-19 16:27:00,46.0,34.9,30.11,WNW,288,2.0,11.0,65,0.00,,,0.00,meteohub,2013-01-19 21:27:00,
2013-01-19 16:32:00,46.0,34.9,30.12,WSW,255,3.0,13.0,65,0.00,,,0.00,meteohub,2013-01-19 21:32:00,
2013-01-19 16:38:00,45.9,35.1,30.11,East,98,0.0,13.0,66,0.00,,,0.00,meteohub,2013-01-19 21:38:00,
2013-01-19 16:43:00,45.7,35.1,30.11,SSW,203,3.0,13.0,66,0.00,,,0.00,meteohub,2013-01-19 21:43:00,
2013-01-19 16:48:00,45.3,34.7,30.11,West,271,1.0,11.0,66,0.00,,,0.00,meteohub,2013-01-19 21:48:00,
2013-01-19 16:53:00,45.1,35.2,30.11,SW,229,0.0,10.0,68,0.00,,,0.00,meteohub,2013-01-19 21:53:00,
2013-01-19 16:58:00,44.8,35.2,30.11,SSE,167,1.0,10.0,69,0.00,,,0.00,meteohub,2013-01-19 21:58:00,
2013-01-19 17:03:00,44.4,35.2,30.11,SW,236,4.0,12.0,70,0.00,,,0.00,meteohub,2013-01-19 22:03:00,
2013-01-19 17:08:00,44.2,35.1,30.11,WSW,250,1.0,12.0,70,0.00,,,0.00,meteohub,2013-01-19 22:08:00,
2013-01-19 17:13:00,44.1,35.2,30.11,SSW,205,1.0,12.0,71,0.00,,,0.00,meteohub,2013-01-19 22:13:00,
2013-01-19 17:18:00,43.9,35.4,30.11,SSW,200,1.0,12.0,72,0.00,,,0.00,meteohub,2013-01-19 22:18:00,
2013-01-19 17:23:00,43.7,35.6,30.11,SE,131,0.0,12.0,73,0.00,,,0.00,meteohub,2013-01-19 22:23:00,
2013-01-19 17:28:00,43.5,35.8,30.11,SSW,203,2.0,10.0,74,0.00,,,0.00,meteohub,2013-01-19 22:28:00,
2013-01-19 17:33:00,43.5,36.1,30.11,SE,143,5.0,10.0,75,0.00,,,0.00,meteohub,2013-01-19 22:33:00,
2013-01-19 17:39:00,43.3,36.0,30.11,West,277,2.0,11.0,75,0.00,,,0.00,meteohub,2013-01-19 22:39:00,
2013-01-19 17:44:00,43.5,36.1,30.11,South,169,2.0,11.0,75,0.00,,,0.00,meteohub,2013-01-19 22:44:00,
2013-01-19 17:49:00,43.5,36.1,30.11,SW,219,5.0,12.0,75,0.00,,,0.00,meteohub,2013-01-19 22:49:00,
2013-01-19 17:54:00,43.5,36.1,30.10,SSW,195,4.0,12.0,75,0.00,,,0.00,meteohub,2013-01-19 22:54:00,
2013-01-19 17:59:00,43.5,36.1,30.10,SSW,210,3.0,12.0,75,0.00,,,0.00,meteohub,2013-01-19 22:59:00,
2013-01-19 18:04:00,43.3,36.0,30.10,SSW,208,5.0,10.0,75,0.00,,,0.00,meteohub,2013-01-19 23:04:00,
2013-01-19 18:10:00,43.3,36.0,30.10,WSW,249,4.0,10.0,75,0.00,,,0.00,meteohub,2013-01-19 23:10:00,
2013-01-19 18:16:00,43.3,36.0,30.10,WSW,249,3.0,12.0,75,0.00,,,0.00,meteohub,2013-01-19 23:16:00,
2013-01-19 18:21:00,43.2,35.8,30.10,SW,215,2.0,12.0,75,0.00,,,0.00,meteohub,2013-01-19 23:21:00,
2013-01-19 18:26:00,43.2,36.1,30.10,SW,233,1.0,9.0,76,0.00,,,0.00,meteohub,2013-01-19 23:26:00,
2013-01-19 18:31:00,43.0,36.0,30.10,SW,221,3.0,10.0,76,0.00,,,0.00,meteohub,2013-01-19 23:31:00,
2013-01-19 18:37:00,43.0,36.0,30.10,South,181,3.0,10.0,76,0.00,,,0.00,meteohub,2013-01-19 23:37:00,
2013-01-19 18:42:00,43.2,36.1,30.10,WSW,252,2.0,8.0,76,0.00,,,0.00,meteohub,2013-01-19 23:42:00,
2013-01-19 18:47:00,43.3,36.3,30.09,South,183,2.0,8.0,76,0.00,,,0.00,meteohub,2013-01-19 23:47:00,
2013-01-19 18:52:00,43.3,36.3,30.10,SW,235,1.0,8.0,76,0.00,,,0.00,meteohub,2013-01-19 23:52:00,
2013-01-19 18:57:00,43.3,36.3,30.09,West,264,6.0,7.0,76,0.00,,,0.00,meteohub,2013-01-19 23:57:00,
2013-01-19 19:02:00,43.3,36.3,30.09,South,179,7.0,11.0,76,0.00,,,0.00,meteohub,2013-01-20 00:02:00,
2013-01-19 19:07:00,43.5,36.5,30.09,South,181,3.0,11.0,76,0.00,,,0.00,meteohub,2013-01-20 00:07:00,
2013-01-19 19:13:00,43.3,36.3,30.09,West,264,0.0,10.0,76,0.00,,,0.00,meteohub,2013-01-20 00:13:00,
2013-01-19 19:18:00,43.3,36.7,30.09,West,277,0.0,10.0,77,0.00,,,0.00,meteohub,2013-01-20 00:18:00,
2013-01-19 19:23:00,43.3,36.7,30.09,South,172,1.0,10.0,77,0.00,,,0.00,meteohub,2013-01-20 00:23:00,
2013-01-19 19:28:00,43.3,36.7,30.09,SSW,198,1.0,11.0,77,0.00,,,0.00,meteohub,2013-01-20 00:28:00,
2013-01-19 19:33:00,43.3,36.9,30.09,West,266,3.0,12.0,78,0.00,,,0.00,meteohub,2013-01-20 00:33:00,
2013-01-19 19:38:00,43.5,37.0,30.08,SSW,212,2.0,12.0,78,0.00,,,0.00,meteohub,2013-01-20 00:38:00,
2013-01-19 19:43:00,43.5,36.9,30.08,SSW,197,2.0,12.0,77,0.00,,,0.00,meteohub,2013-01-20 00:43:00,
2013-01-19 19:48:00,43.5,36.9,30.08,SSW,204,2.0,11.0,77,0.00,,,0.00,meteohub,2013-01-20 00:48:00,
2013-01-19 19:53:00,43.5,36.9,30.07,SW,229,4.0,10.0,77,0.00,,,0.00,meteohub,2013-01-20 00:53:00,
2013-01-19 19:58:00,43.5,36.9,30.07,WSW,252,4.0,10.0,77,0.00,,,0.00,meteohub,2013-01-20 00:58:00,
2013-01-19 20:03:00,43.5,36.5,30.07,WSW,238,6.0,14.0,76,0.00,,,0.00,meteohub,2013-01-20 01:03:00,
2013-01-19 20:08:00,43.9,36.5,30.06,WNW,298,2.0,14.0,75,0.00,,,0.00,meteohub,2013-01-20 01:08:00,
2013-01-19 20:14:00,43.9,36.5,30.06,ESE,108,0.0,14.0,75,0.00,,,0.00,meteohub,2013-01-20 01:14:00,
2013-01-19 20:20:00,44.1,36.7,30.06,West,259,3.0,12.0,75,0.00,,,0.00,meteohub,2013-01-20 01:20:00,
2013-01-19 20:25:00,44.2,36.9,30.06,South,183,5.0,13.0,75,0.00,,,0.00,meteohub,2013-01-20 01:25:00,
2013-01-19 20:30:00,44.2,36.9,30.06,SW,215,4.0,15.0,75,0.00,,,0.00,meteohub,2013-01-20 01:30:00,
2013-01-19 20:35:00,44.2,36.9,30.05,South,188,3.0,15.0,75,0.00,,,0.00,meteohub,2013-01-20 01:35:00,
2013-01-19 20:40:00,44.2,37.2,30.05,South,177,4.0,15.0,76,0.00,,,0.00,meteohub,2013-01-20 01:40:00,
2013-01-19 20:45:00,44.2,37.2,30.05,SSW,211,9.0,16.0,76,0.00,,,0.00,meteohub,2013-01-20 01:45:00,
2013-01-19 20:50:00,44.2,37.2,30.05,SW,223,8.0,16.0,76,0.00,,,0.00,meteohub,2013-01-20 01:50:00,
2013-01-19 20:55:00,44.2,37.2,30.05,West,269,9.0,16.0,76,0.00,,,0.00,meteohub,2013-01-20 01:55:00,
2013-01-19 21:00:00,44.2,37.2,30.04,WSW,257,9.0,16.0,76,0.00,,,0.00,meteohub,2013-01-20 02:00:00,
2013-01-19 21:05:00,44.4,37.0,30.04,SW,216,5.0,16.0,75,0.00,,,0.00,meteohub,2013-01-20 02:05:00,
2013-01-19 21:12:00,44.4,37.0,30.04,South,169,10.0,16.0,75,0.00,,,0.00,meteohub,2013-01-20 02:12:00,
2013-01-19 21:17:00,44.4,37.4,30.04,SW,216,3.0,15.0,76,0.00,,,0.00,meteohub,2013-01-20 02:17:00,
2013-01-19 21:22:00,44.4,37.0,30.04,SW,221,10.0,17.0,75,0.00,,,0.00,meteohub,2013-01-20 02:22:00,
2013-01-19 21:27:00,44.4,37.0,30.03,South,169,5.0,19.0,75,0.00,,,0.00,meteohub,2013-01-20 02:27:00,
2013-01-19 21:32:00,44.6,37.2,30.03,SSE,148,8.0,19.0,75,0.00,,,0.00,meteohub,2013-01-20 02:32:00,
2013-01-19 21:37:00,44.8,37.0,30.03,South,181,8.0,19.0,74,0.00,,,0.00,meteohub,2013-01-20 02:37:00,
2013-01-19 21:42:00,44.8,36.7,30.03,SW,231,7.0,19.0,73,0.00,,,0.00,meteohub,2013-01-20 02:42:00,
2013-01-19 21:47:00,44.8,36.7,30.03,SW,214,7.0,19.0,73,0.00,,,0.00,meteohub,2013-01-20 02:47:00,
2013-01-19 21:52:00,44.8,36.7,30.03,SSW,200,5.0,18.0,73,0.00,,,0.00,meteohub,2013-01-20 02:52:00,
2013-01-19 21:58:00,45.0,36.5,30.03,WSW,243,7.0,22.0,72,0.00,,,0.00,meteohub,2013-01-20 02:58:00,
2013-01-19 22:03:00,45.0,36.5,30.02,South,181,12.0,22.0,72,0.00,,,0.00,meteohub,2013-01-20 03:03:00,
2013-01-19 22:08:00,45.0,36.1,30.02,WSW,250,11.0,22.0,71,0.00,,,0.00,meteohub,2013-01-20 03:08:00,
2013-01-19 22:14:00,45.0,35.8,30.02,SSW,211,13.0,19.0,70,0.00,,,0.00,meteohub,2013-01-20 03:14:00,
2013-01-19 22:19:00,45.0,35.4,30.02,SW,216,7.0,16.0,69,0.00,,,0.00,meteohub,2013-01-20 03:19:00,
2013-01-19 22:24:00,45.1,35.2,30.02,SSW,203,2.0,19.0,68,0.00,,,0.00,meteohub,2013-01-20 03:24:00,
2013-01-19 22:29:00,45.1,35.2,30.01,SSW,201,4.0,20.0,68,0.00,,,0.00,meteohub,2013-01-20 03:29:00,
2013-01-19 22:34:00,45.1,35.2,30.01,South,174,2.0,20.0,68,0.00,,,0.00,meteohub,2013-01-20 03:34:00,
2013-01-19 22:39:00,45.1,35.2,30.01,East,96,8.0,20.0,68,0.00,,,0.00,meteohub,2013-01-20 03:39:00,
2013-01-19 22:44:00,45.3,35.4,30.01,SSW,212,3.0,16.0,68,0.00,,,0.00,meteohub,2013-01-20 03:44:00,
2013-01-19 22:49:00,45.3,35.4,30.01,SW,233,2.0,20.0,68,0.00,,,0.00,meteohub,2013-01-20 03:49:00,
2013-01-19 22:54:00,45.3,35.4,30.01,SW,222,6.0,20.0,68,0.00,,,0.00,meteohub,2013-01-20 03:54:00,
2013-01-19 22:59:00,45.5,36.0,30.01,WSW,239,7.0,20.0,69,0.00,,,0.00,meteohub,2013-01-20 03:59:00,
2013-01-19 23:04:00,45.3,35.8,30.01,South,177,8.0,16.0,69,0.00,,,0.00,meteohub,2013-01-20 04:04:00,
2013-01-19 23:09:00,45.3,35.8,30.01,South,179,5.0,16.0,69,0.00,,,0.00,meteohub,2013-01-20 04:09:00,
2013-01-19 23:14:00,45.3,36.1,30.01,SSW,205,4.0,16.0,70,0.00,,,0.00,meteohub,2013-01-20 04:14:00,
2013-01-19 23:20:00,45.5,36.3,30.01,SW,232,6.0,12.0,70,0.00,,,0.00,meteohub,2013-01-20 04:20:00,
2013-01-19 23:25:00,45.5,36.7,30.00,SW,236,3.0,15.0,71,0.00,,,0.00,meteohub,2013-01-20 04:25:00,
2013-01-19 23:30:00,45.5,37.0,30.00,NW,307,4.0,15.0,72,0.00,,,0.00,meteohub,2013-01-20 04:30:00,
2013-01-19 23:35:00,45.7,37.2,29.99,WSW,243,7.0,15.0,72,0.00,,,0.00,meteohub,2013-01-20 04:35:00,
2013-01-19 23:40:00,45.7,37.2,29.99,WSW,253,4.0,13.0,72,0.00,,,0.00,meteohub,2013-01-20 04:40:00,
2013-01-19 23:45:00,45.9,37.8,29.99,SSE,156,1.0,13.0,73,0.00,,,0.00,meteohub,2013-01-20 04:45:00,
2013-01-19 23:50:00,45.9,37.8,29.99,SSW,207,8.0,13.0,73,0.00,,,0.00,meteohub,2013-01-20 04:50:00,
2013-01-19 23:55:00,45.9,37.8,29.99,WNW,288,10.0,16.0,73,0.00,,,0.00,meteohub,2013-01-20 04:55:00,